Location: Jabiru
(12.6667°S, 132.8333°E)
Time: 02:38:19
(UTC+09:30)

Envisat - Visible Passes

Search period start: 17 June 2021 00:00
Search period end: 27 June 2021 00:00
Orbit: 764 x 766 km, 98.1° (Epoch: 15 June)

Date Brightness Start Highest point End Pass type
(mag) Time Alt. Az. Time Alt. Az. Time Alt. Az.
17 Jun 2.9 05:43:44 10° N 05:48:45 67° WNW 05:53:49 10° SSW visible
18 Jun 4.0 05:07:14 10° NNE 05:12:02 43° ESE 05:16:38 11° S visible
19 Jun 5.5 04:32:23 10° ENE 04:35:25 16° ESE 04:38:28 10° SE visible
19 Jun 3.8 06:09:37 10° NNW 06:14:05 32° W 06:18:36 10° SW visible
19 Jun 5.3 18:34:11 10° SSW 18:38:17 25° WSW 18:42:22 10° NW visible
20 Jun 2.9 05:32:14 10° NNE 05:37:18 90° E 05:42:11 11° SSW visible
21 Jun 4.6 04:56:08 10° NE 05:00:37 32° ESE 05:04:51 11° SSE visible
21 Jun 4.6 06:36:29 10° NW 06:39:27 16° W 06:42:27 10° WSW visible
21 Jun 5.9 19:01:33 10° SW 19:03:27 12° WSW 19:05:21 10° W visible
22 Jun 5.8 04:22:23 10° E 04:24:02 12° ESE 04:25:42 10° SE visible
22 Jun 3.4 05:57:50 10° N 06:02:38 43° W 06:07:28 10° SSW visible
23 Jun 3.3 05:20:51 10° NNE 05:25:52 66° ESE 05:30:24 13° S visible
24 Jun 5.0 04:45:11 10° NE 04:49:12 24° ESE 04:53:06 11° SSE visible
24 Jun 4.3 06:24:11 10° NNW 06:27:59 21° W 06:31:49 10° SW visible
24 Jun 5.7 18:48:54 10° SW 18:52:04 17° WSW 18:55:12 10° WNW visible
25 Jun 3.0 05:46:11 10° N 05:51:10 60° W 05:55:58 11° SSW visible
26 Jun 3.8 05:09:34 10° NNE 05:14:26 48° ESE 05:18:39 14° S visible
